Weather History for Cancun, Mexico

Change the Weather History Date:

Sunday, April 14, 2013

  Actual Average Record
Temperature  
Mean Temperature 82 °F -  
Max Temperature 86 °F 86 °F - ()
Min Temperature 78 °F 70 °F - ()
Cooling Degree Days 17    
Growing Degree Days 32 (Base 50)    
Moisture  
Dew Point 73 °F    
Average Humidity 76    
Maximum Humidity 83    
Minimum Humidity 62    
Precipitation  
Precipitation 0.00 in - - ()
Sea Level Pressure  
Sea Level Pressure 29.84 in    
Wind  
Wind Speed 15 mph ()    
Max Wind Speed 26 mph    
Max Gust Speed 21 mph    
Visibility 7.0 miles    
Events      
T = Trace of Precipitation, MM = Missing Value Source: Averaged Metar Reports

Daily Weather History Graph

Daily Weather History Graph

Search for Another Location

Airport:

Trip Planner

Search our weather history database for the weather conditions in past years. The results will help you decide how hot, cold, wet, or windy it might be!

Date:

Astronomy

Apr. 14, 2013 Rise Set
Actual Time 6:29 AM CDT 7:06 PM CDT
Civil Twilight 6:06 AM CDT 7:28 PM CDT
Nautical Twilight 5:40 AM CDT 7:55 PM CDT
Astronomical Twilight 5:13 AM CDT 8:22 PM CDT
Moon 9:27 AM CDT (4/14) 10:57 PM CDT (4/14)
Length of Visible Light 13h 22m
Length of Day
12h 37m
Waxing Crescent, 17% of the Moon is Illuminated
Apr 14
Waxing Crescent
Apr 18
First Quarter
Apr 25
Full
May 2
Last Quarter
May 9
New

Hourly Weather History & Observations

Time (CDT) Temp. Heat Index Dew Point Humidity Pressure Visibility Wind Dir Wind Speed Gust Speed Precip Events Conditions
12:45 AM 78.8 °F - 73.4 °F 83% 29.84 in 7.0 mi SE 17.3 mph - N/A   Clear
1:44 AM 78.8 °F - 73.4 °F 83% 29.84 in 7.0 mi SE 9.2 mph 20.7 mph N/A   Clear
2:43 AM 78.8 °F - 73.4 °F 83% 29.82 in 7.0 mi ESE 13.8 mph - N/A   Partly Cloudy
3:47 AM 78.8 °F - 71.6 °F 78% 29.81 in 7.0 mi SE 11.5 mph - N/A   Scattered Clouds
4:45 AM 78.8 °F - 73.4 °F 83% 29.83 in 7.0 mi SE 16.1 mph - N/A   Scattered Clouds
5:44 AM 78.8 °F - 73.4 °F 83% 29.83 in 7.0 mi SE 12.7 mph - N/A   Scattered Clouds
6:43 AM 78.8 °F - 73.4 °F 83% 29.83 in 7.0 mi SE 19.6 mph - N/A   Scattered Clouds
7:40 AM 80.6 °F 85.4 °F 73.4 °F 79% 29.85 in 7.0 mi SE 19.6 mph - N/A   Scattered Clouds
8:40 AM 84.2 °F 90.9 °F 73.4 °F 70% 29.87 in 7.0 mi SE 20.7 mph - N/A   Mostly Cloudy
9:42 AM 84.2 °F 90.9 °F 73.4 °F 70% 29.88 in 7.0 mi SSE 21.9 mph - N/A   Scattered Clouds
10:43 AM 84.2 °F 90.9 °F 73.4 °F 70% 29.87 in 7.0 mi SE 21.9 mph - N/A   Mostly Cloudy
11:43 AM 86.0 °F 93.4 °F 73.4 °F 66% 29.86 in 7.0 mi SSE 26.5 mph - N/A   Scattered Clouds
12:44 PM 84.2 °F 90.9 °F 73.4 °F 70% 29.86 in 7.0 mi SSE 23.0 mph - N/A   Mostly Cloudy
1:42 PM 86.0 °F 93.4 °F 73.4 °F 66% 29.83 in 7.0 mi SSE 21.9 mph - N/A   Mostly Cloudy
2:44 PM 84.2 °F 90.9 °F 73.4 °F 70% 29.82 in 7.0 mi SSE 23.0 mph - N/A   Mostly Cloudy
3:43 PM 86.0 °F 91.8 °F 71.6 °F 62% 29.82 in 7.0 mi SSE 18.4 mph - N/A   Scattered Clouds
4:41 PM 84.2 °F 89.6 °F 71.6 °F 66% 29.80 in 7.0 mi SSE 20.7 mph - N/A   Scattered Clouds
5:41 PM 82.4 °F 87.2 °F 71.6 °F 70% 29.80 in 7.0 mi SE 19.6 mph - N/A   Partly Cloudy
6:45 PM 80.6 °F 85.4 °F 73.4 °F 79% 29.82 in 7.0 mi SSE 21.9 mph - N/A   Partly Cloudy
7:41 PM 80.6 °F 85.4 °F 73.4 °F 79% 29.82 in 7.0 mi SSE 9.2 mph - N/A   Partly Cloudy
8:42 PM 80.6 °F 85.4 °F 73.4 °F 79% 29.84 in 7.0 mi SSE 12.7 mph - N/A   Partly Cloudy
9:46 PM 80.6 °F 85.4 °F 73.4 °F 79% 29.87 in 7.0 mi SE 9.2 mph - N/A   Scattered Clouds
10:43 PM 78.8 °F - 73.4 °F 83% 29.88 in 7.0 mi SE 13.8 mph - N/A   Scattered Clouds
11:47 PM 78.8 °F - 73.4 °F 83% 29.88 in 7.0 mi SE 11.5 mph - N/A   Scattered Clouds